Weather Service Report


550 
ASUS42 KFFC 241510
RWRGA 
WEATHER ROUNDUP FOR GEORGIA
NATIONAL WEATHER SERVICE PEACHTREE CITY GA
1000 AM EST TUE JAN 24 2017

NOTE: "FAIR" INDICATES FEW OR NO CLOUDS BELOW 12,000 FEET WITH NO
SIGNIFICANT WEATHER AND/OR OBSTRUCTIONS TO VISIBILITY. 

* = USE WITH CAUTION. THE STATIONS MARKED WITH AN ASTERISK MAY NOT
REPORT WEATHER SUCH AS PRECIPITATION, FOG, OR THUNDER AND ARE NOT 
QUALITY CONTROLLED BY NWS.

THE REMARK "TC" DENOTES TEMPERATURE READING IN DEGREES CELSIUS.

GAZ001>058-241600-
NORTH GEORGIA
  
CITY           SKY/WX    TMP DP  RH WIND       PRES   REMARKS
ATLANTA        MOSUNNY   47  40  76 NW17      29.85R                  
ATHENS         SUNNY     51  41  68 NW12G21   29.81R                  
CHAMBLEE       MOSUNNY   47  38  71 NW13      29.85R                  
PEACHTREE CITY MOSUNNY   48  39  71 NW13G21   29.87R                  
ROME           PTSUNNY   45  36  70 N10       29.91R                  
WEST ATLANTA   MOSUNNY   46  37  71 NW14G22   29.87R                  
GAINESVILLE    SUNNY     48  40  73 W15G22    29.82R                  
CARTERSVILLE   CLOUDY    45  37  73 VRB6      29.90R                  

  
CITY           SKY/WX    TMP DP  RH WIND       PRES   REMARKS
DALTON*        CLOUDY    43  37  81 N12       29.92R                  
LAWRENCEVILLE* MOSUNNY   46  39  76 NW18      29.85R                  
MARIETTA       PTSUNNY   45  37  75 NW14      29.86R                  
KENNESAW*      PTSUNNY   45  37  76 NW14G21   29.91R                  
CANTON*        PTSUNNY   45  34  65 NW15      29.87R                  
$$

GAZ059>098-102>109-241600-
CENTRAL GEORGIA
  
CITY           SKY/WX    TMP DP  RH WIND       PRES   REMARKS
AUGUSTA-BUSH   SUNNY     56  42  59 NW10      29.78R                  
AUGUSTA-DANIEL SUNNY     53  40  61 NW10      29.79R                  
COLUMBUS       SUNNY     48  39  71 NW13      29.90R                  
MACON          MOSUNNY   51  43  74 W10       29.87R                  
ROBINS AFB     MOSUNNY   52  44  74 NW12      29.86R                  

  
CITY           SKY/WX    TMP DP  RH WIND       PRES   REMARKS
LAGRANGE*      MOSUNNY   49  45  85 NW8       29.89S                  
SYLVANIA*      SUNNY    N/A N/A N/A W8G18     29.80R                  
MILLEDGEVILLE* SUNNY     52  46  82 W10       29.84R                  
$$

GAZ099>101-110>166-241600-
SOUTH GEORGIA
  
CITY           SKY/WX    TMP DP  RH WIND       PRES   REMARKS
SAVANNAH       SUNNY     56  44  64 W15       29.79R                  
VALDOSTA       SUNNY     56  46  69 VRB5      29.89R                  
ALMA           SUNNY     55  47  74 NW15G21   29.85R                  
ST SIMONS      SUNNY     57  47  69 W16G25    29.81R                  
FT STEWART     SUNNY     56  45  65 W14       29.79R                  
ALBANY         SUNNY     52  44  74 NW9       29.91R                  
HUNTER AFB     SUNNY     56  49  78 W16       29.76R                  
MOODY AFB      SUNNY     55  45  69 NW8       29.86S                  
BRUNSWICK      SUNNY     59  50  72 W12       29.83R                  

  
CITY           SKY/WX    TMP DP  RH WIND       PRES   REMARKS
BAINBRIDGE*    SUNNY     52  45  76 NW5       29.93R                  
MOULTRIE*      SUNNY     52  45  76 NW5       29.90R                  
VIDALIA*       SUNNY     55  50  82 W14       29.84R                  
WAYCROSS*      SUNNY     59  52  77 W13       29.85R                  
DOUGLAS*       SUNNY     54  45  71 W10G17    29.88R                  
$$
  

Return to Home page


Western Regional Climate Center, wrcc@dri.edu